{"data":{"norad_id":44907,"epoch":"2026-05-25T03:53:34.658880Z","epoch_age_seconds":67817,"freshness":"FRESH","line1":"1 44907U 19096C   26145.16220670 -.00000012  00000+0 -15939-3 0  9995","line2":"2 44907  82.5180  98.3352 0009618 270.6012  89.3965 12.42890926290770","mean_motion":12.42890926,"eccentricity":0.0009618,"inclination_deg":82.518,"raan_deg":98.3352,"arg_perigee_deg":270.6012,"mean_anomaly_deg":89.3965,"bstar":-0.00015939,"rev_number":29077,"period_min":115.85891970701,"perigee_km":1486.8001715136,"apogee_km":1501.943729731,"semimajor_km":7872.5089506223,"source":"CELESTRAK","updated_at":"2026-05-25T13:37:56.041517Z"}}